EHI
0 0 0 0 0 0 0 0 0 0 0 0 0 0 0 0 0 0 0 0 0 0 0 0 0 0 0 0 0 0 0 0 0 0 0 0 0 0 0 0 0 0 0 0
0 0 0 0 0 0 0 0 0 0 0 0 0 0 0 0 0 0 0 0 0 0 0 0 0 0 0 0 0 0 0 0 0 0 0 0 0 0 0 0 0 0 0 0
0 0 0 0 0 0 0 0 0 0 0 0 0 0 0 0 0 0 0 0 0 0 0 0 0 0 0 0 0 0 0 0 0 0 0 0 0 0 0 0 0 0 0 0
0 0 0 0 0 0 0 0 0 0 0 0 0 0 0 0 0 0 0 0 0 0 0 0 0 0 0 0 0 0 0 0 0 0 0 0 0 0 0 0 0 0 0 0
0 0 0 0 0 0 0 0 0 0 0 0 0 0 0 0 0 0 0 0 0 0 0 0 0 0 0 0 0 0 0 0 0 0 0 0 0 0 0 0 0 0 0 0
0 0 0 0 0 0 0 0 0 0 0 0 0 0 0 0 0 0 0 0 0 0 0 0 0 0 0 0 0 0 0 0 0 0 0 0 0 0 0 0 0 0 0 0
0 0 0 0 0 0 0 0 0 0 0 0 0 0 0 0 0 0 0 0 0 0 0 0 0 0 0 0 0 0 0 0 0 0 0 0 0 0 0 0 0 0 0 0
0 0 0 0 0 0 0 0 0 0 0 0 0 0 0 0 0 0 0 0 0 0 0 0 0 0 0 0 0 0 0 0 0 0 0 0 0 0 0 0 0 0 0 0
0 0 0 0 0 0 0 0 0 0 0 0 0 0 0 0 0 0 0 0 0 0 0 0 0 0 0 0 0 0 0 0 0 0 0 0 0 0 0 0 0 0 0 0
0 0 0 0 0 0 0 0 0 0 0 0 0 0 0 0 0 0 0 0 0 0 0 0 0 0 0 0 0 0 0 0 0 0 0 0 0 0 0 0 0 0 0 0
0 0 0 0 0 0 0 0 0 0 0 0 0 0 0 0 0 0 0 0 0 0 0 0 0 0 0 0 0 0 0 0 0 0 0 0 0 0 0 0 0 0 0 0
0 0 0 0 0 0 0 0 0 0 0 0 0 0 0 0 0 0 0 0 0 0 0 0 0 0 0 0 0 0 0 0 0 0 0 0 0 0 0 0 0 0 0 0
0 0 0 0 0 0 0 0 0 0 0 0 0 0 0 0 0 0 0 0 0 0 0 0 0 0 0 0 0 0 0 0 0 0 0 0 0 0 0 0 0 0 0 0
0 0 0 0 0 0 0 0 0 0 0 0 0 0 0 0 0 0 0 0 0 0 0 0 0 0 0 0 0 0 0 0 0 0 0 0 0 0 0 0 0 0 0 0
0 0 0 0 0 0 0 0 0 0 0 0 0 0 0 0 0 0 0 0 0 0 0 0 0 0 0 0 0 0 0 0 0 0 0 0 0 0 0 0 0 0 0 0
0 0 0 0 0 0 0 0 0 0 0 0 0 0 0 0 0 0 0 0 0 0 0 0 0 0 0 0 0 0 0 0 0 0 0 0 0 0 0 0 0 0 0 0
0 0 0 0 0 0 0 0 0 0 0 0 0 0 0 0 0 0 0 0 0 0 0 0 0 0 0 0 0 0 0 0 0 0 0 0 0 0 0 0 0 0 0 0
0 0 0 0 0 0 0 0 0 0 0 0 0 0 0 0 0 0 0 0 0 0 0 0 0 0 0 0 0 0 0 0 0 0 0 0 0 0 0 0 0 0 0 0
0 0 0 0 0 0 0 0 0 0 0 0 0 0 0 0 0 0 0 0 0 0 0 0 0 0 0 0 0 0 0 0 0 0 0 0 0 0 0 0 0 0 0 0
0 0 0 0 0 0 0 0 0 0 0 0 0 0 0 0 0 0 0 0 0 0 0 0 0 0 0 0 0 0 0 0 0 0 0 0 0 0 0 0 0 0 0 0
0 0 0 0 0 0 0 0 0 0 0 0 0 0 0 0 0 0 0 0 0 0 0 0 0 0 0 0 0 0 0 0 0 0 0 0 0 0 0 0 0 0 0 0
0 0 0 0 0 0 0 0 0 0 0 0 0 0 0 0 0 0 0 0 0 0 0 0 0 0 0 0 0 0 0 0 0 0 0 0 0 0 0 0 0 0 0 0
0 0 0 0 0 0 0 0 0 0 0 0 0 0 0 0 0 0 0 0 0 0 0 0 0 0 0 0 0 0 0 0 0 0 0 0 0 0 0 0 0 0 0 0
0 0 0 0 0 0 0 0 0 0 0 0 0 0 0 0 0 0 0 0 0 0 0 0 0 0 0 0 0 0 0 0 0 0 0 0 0 0 0 0 0 0 0 0
0 0 0 0 0 0 0 0 0 0 0 0 0 0 0 0 0 0 0 0 0 0 0 0 0 0 0 0 0 0 0 0 0 0 0 0 0 0 0 0 0 0 0 0
0 0 0 0 0 0 0 0 0 0 0 0 0 0 0 0 0 0 0 0 0 0 0 0 0 0 0 0 0 0 0 0 0 0 0 0 0 0 0 0 0 0 0 0
0 0 0 0 0 0 0 0 0 0 0 0 0 0 0 0 0 0 0 0 0 0 0 0 0 0 0 0 0 0 0 0 0 0 0 0 0 0 0 0 0 0 0 0
Wind_Speed
12 11 9 11 13 11 12 11 11 12 13 15 12 10 10 9 9 9 8 7 6 6 6 5 5 4 4 4 4 5 8 10 11 12 12 11 12 12 12 13 14 13 12 12
10 11 12 15 15 14 15 14 14 15 16 11 10 8 9 9 8 9 8 8 7 6 6 6 5 5 4 4 4 5 7 9 8 9 10 11 12 11 12 12 12 12 13 13
9 7 7 13 13 13 11 9 9 13 13 8 9 10 10 9 8 8 8 8 8 7 6 6 6 6 5 4 4 4 6 6 8 9 10 10 11 12 12 12 12 12 12 12
6 3 10 9 4 7 9 9 8 8 8 8 10 11 10 7 7 8 8 8 8 7 6 6 6 5 5 3 4 5 5 6 8 9 10 9 10 11 12 11 11 11 12 12
4 6 10 8 4 4 6 8 7 9 10 9 9 8 8 6 7 8 8 8 7 7 6 6 6 5 4 3 4 5 6 7 8 9 10 11 11 11 9 10 10 10 11 12
5 6 8 6 4 3 3 6 5 6 8 8 6 5 8 8 8 9 7 6 6 5 5 5 5 4 3 3 4 6 6 6 7 8 10 11 11 10 8 8 9 10 9 10
9 8 9 6 3 2 3 7 5 5 7 6 5 8 10 10 9 8 7 7 6 5 4 5 5 3 4 4 5 5 4 5 6 7 8 9 9 8 9 8 9 9 9 8
6 7 9 3 2 4 6 5 4 5 6 7 9 10 10 10 10 9 8 7 5 4 5 5 4 4 4 5 3 2 4 5 6 7 7 7 9 9 9 10 10 9 9 8
8 8 5 3 5 5 4 5 5 5 7 7 9 10 10 10 10 9 8 7 6 5 6 5 4 4 5 4 2 3 4 5 6 6 7 8 10 10 9 9 8 8 8 8
6 9 7 6 6 6 5 7 8 7 8 7 9 10 11 10 10 9 8 7 5 5 5 6 5 4 5 3 2 4 5 6 6 7 7 8 7 8 9 9 9 8 8 8
8 8 7 7 6 7 8 8 8 8 8 8 9 10 10 10 10 9 8 7 5 5 6 7 5 5 4 3 3 4 6 6 6 6 8 8 6 6 7 7 9 10 9 9
9 7 6 7 6 6 8 9 9 9 10 9 8 10 11 10 9 9 9 7 6 6 7 6 5 5 4 4 4 5 6 6 5 5 6 7 7 5 5 6 10 11 11 11
9 8 8 10 9 7 8 9 10 9 10 11 10 9 10 10 9 9 9 8 7 7 7 6 5 5 4 4 4 6 7 6 5 6 7 7 8 8 7 7 9 10 12 13
7 6 8 8 8 8 9 10 10 10 10 10 10 9 9 10 9 10 10 9 8 7 6 6 5 5 4 4 4 6 6 6 6 6 7 7 7 7 8 9 7 5 7 13
6 6 8 9 9 10 9 9 10 11 10 10 9 9 9 10 10 11 10 8 7 7 6 5 6 5 4 4 5 6 6 6 5 6 6 7 7 7 7 8 8 7 7 9
7 8 8 9 10 10 10 10 11 12 11 11 10 10 10 10 10 10 9 7 7 7 6 5 6 5 4 5 5 5 5 8 7 7 8 8 8 8 8 8 8 8 8 9
7 8 8 9 10 11 11 10 11 12 12 11 11 11 10 10 10 10 9 7 7 7 6 6 6 4 4 5 5 5 6 7 9 8 7 8 8 8 8 9 8 8 7 9
7 8 9 11 11 12 13 12 12 12 12 12 11 10 10 10 10 10 9 7 6 6 6 5 4 4 4 5 5 5 6 6 7 8 8 8 8 8 8 8 9 9 8 9
7 9 10 11 11 11 12 13 12 12 12 11 10 11 10 10 10 9 8 6 6 7 5 4 6 5 4 5 6 5 7 7 7 7 7 10 9 7 8 9 9 9 9 8
8 9 9 10 10 11 11 11 11 11 10 9 9 10 10 9 8 8 6 7 6 5 4 4 4 4 4 6 7 6 7 8 8 8 8 8 8 8 8 8 9 9 9 8
9 10 10 10 10 11 11 11 10 11 10 9 9 10 10 9 7 6 6 6 5 4 4 5 4 3 4 6 7 6 7 8 8 8 8 8 8 9 9 9 9 9 9 8
9 9 10 10 11 11 10 9 9 10 9 8 9 9 8 8 7 6 6 5 4 4 3 3 3 5 6 7 6 7 7 8 7 7 8 8 9 9 9 10 9 9 9 9
9 9 10 10 11 11 11 9 9 8 8 8 8 8 7 6 5 4 5 4 3 4 3 3 5 8 9 6 6 7 8 8 8 8 8 8 8 9 9 10 9 9 9 9
9 9 10 10 9 9 10 9 8 7 7 7 6 6 5 4 4 3 4 5 4 4 2 4 7 9 9 5 6 7 7 7 8 8 8 8 8 8 9 9 9 9 9 10
9 9 9 9 8 7 8 8 7 6 6 5 5 5 4 3 3 3 2 2 3 2 2 4 7 7 5 5 6 7 7 7 8 8 8 9 9 9 9 9 9 9 9 9
8 7 7 7 7 6 6 5 5 5 5 4 4 3 3 2 1 1 0 1 3 4 3 3 4 5 5 5 6 7 7 8 8 8 8 9 10 9 9 9 11 9 9 9
7 6 6 6 5 5 5 5 5 5 5 4 4 4 3 2 2 2 2 3 3 4 4 4 4 5 5 6 7 7 7 7 7 8 8 9 9 9 9 11 9 9 8 9
Wind_Direction
253 259 255 258 260 245 227 227 237 254 260 274 289 294 298 303 306 310 314 314 306 301 295 286 283 277 260 249 229 209 198 197 200 195 190 188 184 183 181 181 181 180 178 179
263 253 253 260 258 250 245 241 243 258 267 267 277 284 291 297 302 304 305 306 300 295 296 293 281 275 270 256 236 210 200 198 193 186 183 182 181 177 176 177 176 175 178 178
265 271 270 257 244 237 233 224 226 245 257 283 292 292 288 285 292 295 296 297 294 286 281 281 278 271 258 251 240 215 202 192 185 182 180 180 174 173 176 175 172 174 177 177
266 261 246 248 230 228 237 244 237 251 269 273 276 283 277 271 276 284 288 290 290 284 281 278 274 270 262 246 224 211 200 186 181 179 178 172 171 175 176 173 174 176 176 177
239 251 267 279 259 216 223 247 242 252 272 282 290 297 281 272 272 274 275 278 279 273 273 275 272 262 252 245 220 206 199 188 182 178 174 171 172 173 172 169 171 172 173 172
229 244 256 265 272 243 189 259 265 253 270 284 310 300 287 301 298 289 280 278 279 280 282 276 271 254 231 236 220 210 201 191 182 178 175 175 173 168 163 163 166 163 165 171
232 245 262 268 279 115 182 258 284 260 264 271 260 255 280 298 297 292 285 282 282 279 278 273 271 250 230 231 230 218 191 176 172 174 174 169 162 160 156 153 155 158 160 163
211 229 250 243 146 189 236 268 277 272 271 272 273 278 287 294 295 297 294 287 280 277 278 273 262 241 231 234 238 201 169 167 168 167 163 158 155 156 156 154 155 157 155 155
206 226 246 206 215 239 245 265 274 273 278 281 284 287 291 292 293 292 289 287 281 271 279 276 257 238 232 241 215 177 162 164 164 160 160 159 158 157 156 156 157 160 159 159
250 259 260 263 268 273 272 267 274 276 282 289 285 289 292 292 293 293 290 287 287 282 281 280 275 255 239 218 198 179 166 162 161 158 157 157 158 160 160 162 159 159 161 159
250 269 287 273 261 268 277 281 286 291 287 285 287 289 287 288 290 290 291 286 280 273 272 273 274 263 241 198 180 176 166 161 162 162 157 154 154 161 163 169 168 164 165 162
245 246 246 265 272 277 281 285 288 293 295 291 284 287 290 290 289 289 289 286 279 272 271 273 269 260 235 200 182 173 165 164 164 160 152 148 141 120 104 135 146 152 157 156
250 260 258 270 278 278 277 285 289 287 285 288 287 284 286 288 288 289 289 284 273 267 267 268 264 257 229 206 190 181 174 171 165 160 154 152 148 143 130 105 111 133 146 150
256 267 273 273 277 286 283 285 287 284 281 281 284 286 285 287 288 289 286 283 276 269 266 261 258 249 227 205 192 180 171 170 167 163 156 152 148 146 144 143 138 125 133 144
262 256 263 280 286 288 287 289 291 289 290 291 288 286 288 289 288 286 285 283 276 268 264 258 251 241 220 195 184 176 168 164 160 153 148 144 141 139 138 138 138 136 129 133
284 283 280 281 285 291 294 292 289 289 291 291 291 289 287 284 284 286 286 280 271 265 263 258 249 236 213 190 176 171 166 165 160 151 146 145 145 144 143 142 142 145 146 144
284 288 289 291 291 291 289 286 284 286 289 288 288 290 289 286 285 286 287 283 272 266 258 247 244 233 208 186 175 167 158 156 155 149 149 150 149 148 146 145 147 146 146 153
263 271 277 280 285 288 288 287 284 285 285 286 288 288 287 285 284 285 287 285 278 269 256 239 231 220 200 181 172 163 157 157 156 151 147 146 146 145 144 145 147 144 140 142
288 285 285 284 283 284 284 285 284 282 282 283 285 284 281 279 280 281 283 274 264 263 258 228 221 203 185 182 172 157 153 151 147 145 143 146 143 143 145 147 147 146 144 142
303 299 295 292 289 287 288 288 287 284 282 281 280 280 280 279 279 278 275 264 256 252 242 229 209 188 180 173 168 156 153 152 150 147 145 146 146 147 147 146 145 145 144 143
310 309 307 303 299 295 292 291 288 285 285 281 276 275 277 278 277 272 270 270 264 240 229 226 207 187 177 166 162 155 152 151 151 150 149 148 148 148 148 147 144 143 142 140
310 310 309 307 304 302 299 296 290 286 285 283 279 276 274 276 277 269 257 258 267 248 234 212 191 184 176 165 154 150 149 149 149 147 148 151 152 151 150 147 145 143 141 141
309 309 309 307 305 303 303 301 299 295 289 285 283 279 272 271 269 265 272 265 255 248 237 207 185 178 171 160 150 149 150 151 150 149 150 150 150 148 146 145 143 142 140 140
309 310 309 307 306 306 308 310 307 302 298 294 289 282 274 273 271 257 257 266 257 244 220 186 178 169 163 150 147 147 148 148 145 144 143 141 140 139 140 140 139 138 138 139
309 308 309 312 314 311 308 311 314 314 311 306 303 299 288 270 264 275 267 246 214 197 155 154 152 147 139 134 140 141 141 142 142 140 140 139 137 136 136 136 136 136 137 140
310 308 305 302 302 305 309 313 316 318 318 318 322 325 319 310 296 295 300 102 116 120 116 124 131 126 119 119 122 125 127 131 132 131 132 132 131 132 132 132 131 132 134 135
310 310 310 313 315 316 316 316 317 321 324 326 330 337 346 6 31 52 75 86 92 96 96 97 100 103 107 109 109 111 113 116 119 121 124 123 124 125 127 127 127 128 130 132